[[{"header":{"parameterUnit":"m.s-1","parameterCategory":1,"la1":30.2991,"la2":30.254,"lo1":-89.0895,"lo2":-89.0444,"dy":0.0017,"dx":0.0017,"nx":28,"ny":28,"refTime":"2025-06-18T03:00:00:Z","depth":0,"parameterNumber":2,"parameterNumberName":"U-component_of_WINDS"},"data":[0,0,0,0,0,0,0,0,0,0,0,0,0,0,0,0,0,0,0,0,0,0,0,0,0,0,0,0,0,0,0,0,0,0,0,0,0,0,0,0,0,0,0,0,0,0,0,0,0,0,0,0,0,0,0,0,0,0,2.5552,2.5553,0,2.5659,2.566,2.5662,2.566,2.5659,2.5657,2.5656,2.5764,2.5769,2.5773,0,0,0,0,0,0,0,0,0,0,0,0,0,2.534,2.5344,2.5551,2.5553,2.5554,2.5659,2.566,2.5662,2.566,2.5659,2.5657,2.5655,2.5763,2.5768,2.5773,0,0,0,0,0,0,0,0,0,0,0,0,0,2.5438,2.5346,2.5551,2.5566,2.5568,2.5659,2.566,2.5662,2.5661,2.5659,2.5656,2.5654,2.5761,2.5768,2.5774,2.5856,0,0,2.5793,2.5796,0,0,0,0,0,0,0,0,2.5433,2.5446,2.5563,2.5565,2.5568,2.5644,2.5626,2.5727,2.5661,2.5626,2.5656,2.5653,2.5726,2.5735,2.576,2.5861,2.5866,2.5794,2.5798,2.58,2.5802,0,0,0,0,0,0,0,2.5426,2.5442,2.5594,2.5564,2.5568,2.5566,2.5577,2.5645,2.5686,2.5629,2.5629,2.5642,2.5727,2.5754,2.5762,2.5867,2.5794,2.5799,2.5803,2.5806,2.6036,2.6038,0,0,0,0,0,0,2.5417,2.5436,2.5591,2.5597,2.5494,2.5571,2.5584,2.5622,2.5686,2.5693,2.5643,2.5641,2.5744,2.5755,2.5766,2.5863,2.58,2.5806,2.581,2.6033,2.6036,2.6039,0,0,0,0,0,0,2.5412,2.5431,2.5586,2.5517,2.5536,2.5577,2.5619,2.5625,2.5652,2.5697,2.5704,2.5663,2.5743,2.5757,2.5833,2.5867,2.5809,2.5815,2.6031,2.6034,2.6037,2.6059,0,0,0,0,0,0,2.5406,2.5429,2.5462,2.5517,2.554,2.5652,2.5622,2.5629,2.5663,2.5661,2.5717,2.5725,2.5742,2.5823,2.5839,2.5874,2.582,2.6028,2.6032,2.6036,2.6055,2.6063,2.6069,0,0,0,0,0,2.5399,2.5464,2.5463,2.5482,2.5582,2.5654,2.5667,2.5686,2.5666,2.5698,2.5726,2.5723,2.5861,2.5831,2.5849,2.5887,2.6026,2.6031,2.6036,2.6052,2.6061,2.6069,0,0,0,0,0,0,2.5412,2.5472,2.5472,2.5558,2.5601,2.5654,2.5695,2.5696,2.5745,2.5742,2.5763,2.5775,2.585,2.5876,2.5842,2.5967,2.594,2.5949,2.5947,2.5956,2.5962,2.5954,2.5825,0,0,0,0,0,2.5425,2.5479,2.5529,2.5599,2.5621,2.5654,2.5687,2.5697,2.5743,2.5761,2.5795,2.5838,2.5891,2.5925,2.5977,2.606,2.607,2.6094,2.6101,2.6107,2.6113,2.6155,2.6165,2.6056,2.6056,2.6056,0,0,2.5452,2.5492,2.5525,2.5603,2.5638,2.5691,2.567,2.5729,2.5768,2.577,2.5842,2.5868,2.5918,2.5996,2.6032,2.602,2.6146,2.6113,2.6117,2.6121,2.6161,2.6172,2.6181,2.6059,2.6059,2.6058,0,0,2.5529,2.5566,2.5627,2.5661,2.5714,2.5735,2.5749,2.5802,2.5819,2.5892,2.5893,2.5939,2.6031,2.6065,2.6094,2.6179,2.6177,2.6196,2.6231,2.6271,2.628,2.6287,2.6314,2.6324,2.6203,2.6203,2.6203,0,2.5556,2.5638,2.5658,2.5716,2.5749,2.5752,2.5812,2.5845,2.5911,2.5933,2.5919,2.603,2.6064,2.6148,2.6169,2.6194,2.6209,2.6189,2.6277,2.6285,2.6292,2.6318,2.6329,2.6205,2.6204,2.6204,2.6204,0,2.5666,2.5723,2.5766,2.5829,2.5867,2.5926,2.5952,2.5988,2.5995,2.6017,2.6089,2.6129,2.6187,2.6208,2.6216,2.6292,2.6283,2.6273,2.6246,2.6304,2.6328,2.6339,2.6207,2.6206,2.6206,2.6205,0,0,2.5755,2.5826,2.5841,2.5868,2.5924,2.5968,2.6026,2.6082,2.611,2.6155,2.6202,2.6278,2.6267,2.63,2.6312,2.6348,2.6408,2.6333,2.6334,2.6343,2.649,2.6495,2.6506,2.6407,2.6409,2.6411,2.6485,0,2.5835,2.5938,2.5956,2.6045,2.6095,2.6098,2.6147,2.6186,2.6208,2.6252,2.6276,2.6328,2.6313,2.6332,2.6367,2.6393,2.6437,2.6389,2.6448,2.645,2.6433,2.652,2.6526,2.6594,2.6495,2.6496,2.6498,0,2.5942,2.5988,2.6082,2.6128,2.615,2.6195,2.6245,2.6289,2.6332,2.6345,2.638,2.6386,2.6444,2.6416,2.6493,2.6459,2.6485,2.6501,2.6504,2.6508,2.6476,2.6524,2.6617,2.6625,2.6514,2.6512,2.6511,0,2.5992,2.6079,2.6145,2.6168,2.6225,2.6255,2.628,2.6321,2.6352,2.6396,2.6416,2.6466,2.6493,2.6531,2.655,2.6529,2.6625,2.6599,2.6634,2.6634,2.6653,2.6651,2.6748,2.6674,2.6674,2.6674,2.6674,0,2.6078,2.6135,2.6168,2.6208,2.627,2.6289,2.635,2.6374,2.641,2.6453,2.6459,2.6499,2.6523,2.6566,2.6582,2.6641,2.6654,2.6664,2.6667,2.6662,2.666,2.6678,2.6672,2.6677,2.6676,2.6676,2.6675,0,2.6145,2.617,2.6241,2.6288,2.6301,2.6344,2.6383,2.6421,2.6442,2.6496,2.651,2.6542,2.6593,2.6616,2.6679,2.6689,2.6756,2.6757,2.6741,2.6742,2.6774,2.677,2.6884,2.6898,2.6817,2.6818,2.6818,0,2.6196,2.6239,2.629,2.6319,2.6345,2.6393,2.6424,2.6444,2.6476,2.6526,2.6557,2.6608,2.6649,2.673,2.6758,2.6805,2.6806,2.6842,2.6813,2.6805,2.6802,2.6798,2.6801,2.6847,2.6848,2.6848,2.6849,0,2.6284,2.6293,2.6339,2.6387,2.6424,2.6463,2.6502,2.6525,2.6551,2.6586,2.6638,2.667,2.6733,2.6782,2.683,2.6854,2.6855,2.6858,2.6868,2.6862,2.685,2.6853,2.6753,2.6855,2.6854,2.6854,2.6854,2.6853,2.6343,2.638,2.642,2.6469,2.6499,2.6534,2.6571,2.6596,2.6639,2.6692,2.6701,2.6755,2.6793,2.6858,2.6883,2.6925,2.6916,2.6931,2.6935,2.6937,2.6937,2.6845,2.6934,2.6934,2.6934,2.6934,2.6934,0,2.6428,2.6453,2.6498,2.6551,2.6588,2.6586,2.6628,2.6659,2.6706,2.6742,2.6782,2.684,2.6887,2.6917,2.6964,2.6991,2.6992,2.7002,2.6999,2.7004,2.6945,2.693,2.7,2.7,2.7,2.7,2.7,2.7,2.6476,2.6537,2.6551,2.6626,2.6651,2.6704,2.6727,2.6758,2.6786,2.685,2.6889,2.6909,2.6941,2.699,2.7032,2.704,2.7055,2.7066,2.7072,2.7016,2.7009,2.7002,2.6988,2.707,2.707,2.7128,2.7129,2.7129]},{"header":{"parameterUnit":"m.s-1","parameterCategory":1,"la1":30.2991,"la2":30.254,"lo1":-89.0895,"lo2":-89.0444,"dy":0.0017,"dx":0.0017,"nx":28,"ny":28,"refTime":"2025-06-18T03:00:00:Z","depth":0,"parameterNumber":3,"parameterNumberName":"V-component_of_WINDS"},"data":[0,0,0,0,0,0,0,0,0,0,0,0,0,0,0,0,0,0,0,0,0,0,0,0,0,0,0,0,0,0,0,0,0,0,0,0,0,0,0,0,0,0,0,0,0,0,0,0,0,0,0,0,0,0,0,0,0,0,3.9471,3.9473,0,3.9619,3.962,3.9622,3.96,3.9597,3.9595,3.9592,3.9739,3.9745,3.9752,0,0,0,0,0,0,0,0,0,0,0,0,0,3.9165,3.9171,3.9471,3.9473,3.9475,3.9618,3.962,3.9622,3.96,3.9597,3.9594,3.9591,3.9737,3.9745,3.9752,0,0,0,0,0,0,0,0,0,0,0,0,0,3.9304,3.9173,3.9471,3.9481,3.9484,3.9618,3.9621,3.9623,3.9601,3.9597,3.9593,3.959,3.9735,3.9744,3.9753,3.9886,0,0,3.9782,3.9786,0,0,0,0,0,0,0,0,3.9296,3.9315,3.9478,3.9481,3.9484,3.9587,3.9566,3.9711,3.9602,3.9556,3.9592,3.9588,3.9691,3.9704,3.974,3.9892,3.9899,3.9783,3.9788,3.9792,3.9795,0,0,0,0,0,0,0,3.9287,3.9309,3.9529,3.948,3.9484,3.9477,3.9492,3.9594,3.9643,3.956,3.9559,3.9576,3.9692,3.9731,3.9743,3.9901,3.9782,3.9791,3.9796,3.98,4.0166,4.017,0,0,0,0,0,0,3.9275,3.9301,3.9525,3.9534,3.9379,3.9485,3.9503,3.9558,3.9642,3.9651,3.958,3.9575,3.9717,3.9732,3.9748,3.9906,3.9792,3.9801,3.9806,4.0162,4.0167,4.0171,0,0,0,0,0,0,3.9268,3.9295,3.9519,3.9417,3.9445,3.9495,3.9556,3.9562,3.9601,3.9657,3.9665,3.961,3.9714,3.9735,3.9851,3.9911,3.9805,3.9814,4.0157,4.0163,4.0169,4.0225,0,0,0,0,0,0,3.926,3.9293,3.9345,3.9419,3.9451,3.9621,3.956,3.9568,3.9618,3.9613,3.9688,3.9696,3.9713,3.9837,3.986,3.9922,3.9821,4.0152,4.016,4.0167,4.0218,4.0233,4.0245,0,0,0,0,0,3.9249,3.9355,3.9348,3.9375,3.9517,3.9625,3.9643,3.9661,3.9623,3.9674,3.971,3.9694,3.9901,3.9849,3.9875,3.9941,4.0148,4.0158,4.0166,4.0212,4.023,4.0245,0,0,0,0,0,0,3.9286,3.9365,3.9358,3.9491,3.9552,3.9621,3.9687,3.968,3.9751,3.9744,3.9762,3.9779,3.9896,3.993,3.9871,4.0071,4.0019,4.0034,4.0045,4.0062,4.0075,4.0064,3.9829,0,0,0,0,0,3.931,3.9393,3.9456,3.9568,3.9598,3.9637,3.9685,3.9694,3.9756,3.9781,3.9825,3.9885,3.9964,4.0015,4.009,4.0223,4.0238,4.0281,4.0294,4.0305,4.0317,4.0387,4.0406,4.0202,4.0202,4.0201,0,0,3.936,3.9413,3.9464,3.9576,3.9624,3.9707,3.9659,3.9749,3.981,3.9795,3.9907,3.9941,4.0009,4.0133,4.019,4.0165,4.0377,4.0317,4.0325,4.0331,4.0398,4.0418,4.0435,4.0208,4.0207,4.0206,0,0,3.9493,3.9543,3.964,3.9689,3.9762,3.9787,3.981,3.9881,3.9903,4.0016,4.0005,4.0077,4.0212,4.026,4.0303,4.0452,4.0439,4.0476,4.0545,4.0613,4.0629,4.0643,4.0694,4.0712,4.0488,4.0488,4.0488,0,3.9546,3.9672,3.9691,3.9782,3.983,3.9821,3.9917,3.9963,4.0057,4.009,4.0061,4.0229,4.0274,4.0408,4.0444,4.048,4.0505,4.0467,4.0625,4.064,4.0653,4.0702,4.0721,4.0492,4.0491,4.0491,4.0491,0,3.9731,3.9819,3.9888,3.9979,4.0035,4.0129,4.016,4.0214,4.0217,4.0245,4.0358,4.0412,4.0497,4.053,4.0534,4.0664,4.0646,4.0621,4.0568,4.0676,4.0722,4.0741,4.0497,4.0496,4.0495,4.0494,0,0,3.9893,3.9992,4.0017,4.0057,4.0136,4.0203,4.0295,4.0379,4.0424,4.0488,4.0564,4.0678,4.0655,4.0702,4.0712,4.0772,4.0883,4.0739,4.0741,4.0762,4.1026,4.1043,4.1064,4.0875,4.0879,4.0882,4.102,0,4.0031,4.0195,4.0214,4.0359,4.0438,4.0429,4.0509,4.0565,4.0592,4.0662,4.0692,4.0771,4.0736,4.0765,4.0824,4.0857,4.0936,4.0847,4.0943,4.0947,4.0925,4.1089,4.1107,4.1235,4.1038,4.1041,4.1043,0,4.0216,4.0286,4.0439,4.0505,4.0538,4.061,4.0687,4.0755,4.0817,4.0832,4.0885,4.0886,4.0978,4.0922,4.1048,4.0988,4.1028,4.105,4.1055,4.1063,4.1,4.1099,4.1276,4.1294,4.1072,4.107,4.1068,0,4.0315,4.0447,4.0555,4.059,4.0671,4.072,4.0756,4.0815,4.0863,4.093,4.0961,4.1037,4.1079,4.1137,4.1157,4.1115,4.1281,4.1228,4.1294,4.1294,4.1329,4.1326,4.1512,4.1358,4.1357,4.1357,4.1357,0,4.0467,4.056,4.06,4.0667,4.077,4.079,4.0891,4.0924,4.0976,4.1046,4.1044,4.111,4.1134,4.1203,4.122,4.132,4.1339,4.1352,4.1355,4.1352,4.135,4.1377,4.1368,4.1362,4.1361,4.136,4.1359,0,4.0595,4.0626,4.0743,4.0809,4.0828,4.0901,4.0956,4.1019,4.1045,4.1135,4.1157,4.1197,4.1279,4.1305,4.1404,4.1415,4.153,4.1527,4.151,4.151,4.1574,4.1567,4.1783,4.1811,4.164,4.1642,4.1643,0,4.0689,4.076,4.0834,4.0882,4.0919,4.0997,4.1046,4.1067,4.1118,4.1193,4.1246,4.1327,4.1393,4.1523,4.156,4.1634,4.1631,4.1701,4.1642,4.1635,4.1629,4.1624,4.163,4.1712,4.1714,4.1715,4.1716,0,4.0852,4.0863,4.0935,4.1012,4.1071,4.1133,4.1192,4.1231,4.126,4.1317,4.1401,4.1452,4.1552,4.1631,4.1706,4.1741,4.1733,4.1735,4.1754,4.175,4.1736,4.1742,4.1538,4.173,4.1728,4.1727,4.1727,4.1726,4.0964,4.1026,4.1088,4.1167,4.1214,4.1269,4.133,4.1364,4.1435,4.1518,4.1526,4.1616,4.1673,4.1774,4.1812,4.1881,4.186,4.1888,4.1895,4.1901,4.1905,4.1727,4.1895,4.1894,4.1894,4.1894,4.1894,0,4.1125,4.1164,4.1237,4.1319,4.1381,4.137,4.1434,4.1486,4.1565,4.1621,4.1685,4.178,4.1856,4.1899,4.1975,4.2021,4.2019,4.204,4.2036,4.2043,4.192,4.1895,4.204,4.204,4.204,4.204,4.204,4.204,4.1216,4.1319,4.1338,4.1464,4.1502,4.159,4.1627,4.1677,4.1721,4.1827,4.1891,4.1919,4.1968,4.2047,4.2116,4.2126,4.2153,4.2176,4.2184,4.2068,4.2052,4.2038,4.2015,4.2182,4.2183,4.2301,4.2302,4.2303]}]]